Weather History for PAHO - March, 2013

Change the Weather History Date:

Saturday, March 30, 2013

  Actual Average Record
Temperature  
Mean Temperature 37 °F -  
Max Temperature 43 °F 38 °F 49 °F (1936)
Min Temperature 32 °F 23 °F -7 °F (1944)
Degree Days  
Heating Degree Days 28    
Moisture  
Dew Point 32 °F    
Average Humidity 86    
Maximum Humidity 93    
Minimum Humidity 67    
Precipitation  
Precipitation 0.00 in - - ()
Sea Level Pressure  
Sea Level Pressure 30.10 in    
Wind  
Wind Speed 2 mph (NNW)    
Max Wind Speed 7 mph    
Max Gust Speed -    
Visibility 9 miles    
Events Rain    
Averages and records for this station are not official NWS values.
T = Trace of Precipitation, MM = Missing Value Source: NWS Daily Summary

Daily Weather History Graph

Daily Weather History Graph

Search for Another Location

Airport or City:

Trip Planner

Search our weather history database for the weather conditions in past years. The results will help you decide how hot, cold, wet, or windy it might be!

Date:

Astronomy

Mar. 30, 2013 Rise Set
Actual Time 7:36 AM AKDT 8:45 PM AKDT
Civil Twilight 6:54 AM AKDT 9:28 PM AKDT
Nautical Twilight 6:01 AM AKDT 10:20 PM AKDT
Astronomical Twilight 5:02 AM AKDT 11:21 PM AKDT
Moon 12:51 AM AKDT (3/30) 8:40 AM AKDT (3/30)
Length of Visible Light 14h 33m
Length of Day
13h 09m
Waning Gibbous, 85% of the Moon is Illuminated
Mar 30
Waning Gibbous
Apr 2
Last Quarter
Apr 10
New
Apr 18
First Quarter
Apr 25
Full

Hourly Weather History & Observations

Time (AKDT) Temp. Windchill Dew Point Humidity Pressure Visibility Wind Dir Wind Speed Gust Speed Precip Events Conditions
12:10 AM 33.8 °F - 32.0 °F 93% 29.97 in 10.0 mi Calm Calm - N/A   Overcast
12:24 AM 33.8 °F 30.8 °F 32.0 °F 93% 29.97 in 10.0 mi WSW 3.5 mph - N/A   Overcast
12:39 AM 33.8 °F 30.8 °F 32.0 °F 93% 29.98 in 10.0 mi WSW 3.5 mph - N/A   Overcast
12:53 AM 34.0 °F - 32.0 °F 92% 29.99 in 10.0 mi Calm Calm - 0.00 in   Overcast
1:53 AM 34.0 °F - 32.0 °F 92% 30.00 in 10.0 mi Calm Calm - 0.00 in   Overcast
2:53 AM 34.0 °F - 32.0 °F 92% 30.01 in 10.0 mi Calm Calm - N/A   Overcast
3:53 AM 34.0 °F - 32.0 °F 92% 30.03 in 5.0 mi Calm Calm - N/A   Overcast
4:20 AM 33.8 °F - 32.0 °F 93% 30.03 in 7.0 mi Calm Calm - N/A   Overcast
4:53 AM 34.0 °F - 30.9 °F 89% 30.04 in 6.0 mi Calm Calm - 0.00 in   Overcast
5:21 AM 33.8 °F - 30.2 °F 87% 30.04 in 5.0 mi Calm Calm - 0.00 in   Overcast
5:53 AM 33.1 °F 30.0 °F 30.9 °F 92% 30.05 in 5.0 mi ENE 3.5 mph - 0.00 in   Overcast
6:53 AM 33.1 °F 30.0 °F 30.9 °F 92% 30.07 in 9.0 mi NNE 3.5 mph - N/A   Overcast
7:53 AM 33.1 °F 30.0 °F 30.9 °F 92% 30.08 in 10.0 mi ENE 3.5 mph - 0.00 in Rain Light Rain
8:53 AM 34.0 °F 28.0 °F 30.9 °F 89% 30.09 in 10.0 mi ENE 6.9 mph - 0.00 in   Overcast
9:24 AM 35.6 °F 31.7 °F 32.0 °F 87% 30.09 in 10.0 mi NE 4.6 mph - N/A   Mostly Cloudy
9:53 AM 36.0 °F 33.3 °F 33.1 °F 89% 30.11 in 10.0 mi NNE 3.5 mph - N/A   Mostly Cloudy
10:53 AM 37.9 °F 35.5 °F 34.0 °F 86% 30.12 in 10.0 mi East 3.5 mph - N/A   Mostly Cloudy
11:53 AM 37.9 °F 35.5 °F 34.0 °F 86% 30.13 in 10.0 mi East 3.5 mph - N/A   Overcast
12:53 PM 39.9 °F - 34.0 °F 79% 30.14 in 10.0 mi Calm Calm - N/A   Overcast
1:53 PM 39.9 °F 37.8 °F 35.1 °F 83% 30.15 in 10.0 mi SSW 3.5 mph - N/A   Overcast
2:53 PM 39.0 °F 34.0 °F 34.0 °F 82% 30.17 in 10.0 mi SW 6.9 mph - 0.00 in Rain Light Rain
3:24 PM 39.2 °F - 33.8 °F 81% 30.15 in 10.0 mi Calm Calm - 0.00 in   Mostly Cloudy
3:53 PM 42.1 °F - 32.0 °F 67% 30.16 in 10.0 mi Calm Calm - 0.00 in   Mostly Cloudy
4:53 PM 39.9 °F 36.7 °F 32.0 °F 73% 30.16 in 10.0 mi SSW 4.6 mph - N/A   Overcast
5:53 PM 39.9 °F 37.8 °F 32.0 °F 73% 30.16 in 10.0 mi WNW 3.5 mph - N/A   Mostly Cloudy
6:53 PM 39.9 °F - 32.0 °F 73% 30.17 in 10.0 mi Calm Calm - N/A   Overcast
7:53 PM 39.0 °F 36.8 °F 32.0 °F 76% 30.18 in 10.0 mi WSW 3.5 mph - 0.00 in Rain Light Rain
8:53 PM 37.9 °F 34.4 °F 32.0 °F 79% 30.19 in 10.0 mi West 4.6 mph - 0.00 in   Overcast
9:53 PM 35.1 °F - 30.9 °F 85% 30.21 in 10.0 mi Calm Calm - N/A   Clear
10:53 PM 32.0 °F - 28.9 °F 88% 30.21 in 10.0 mi Calm Calm - N/A   Clear
11:53 PM 32.0 °F - 28.9 °F 88% 30.22 in 10.0 mi Calm Calm - N/A   Mostly Cloudy